NOAA 16 DEB, 41266

Orbit data source: Space-Track

NOAA 16 DEB, 41266 is space debris in LEO originally from a launch on Thu, 21 Sep 2000 UTC launched from the Air Force Western Test Range (AFWTR). Debris objects in space refer to the collection of defunct objects orbiting the Earth. Examples of debris include non-operational satellites, rocket bodies, and fragments generated from explosions, collisions, or faulty payload assembly.

Loading next visibility...
NOAA 16 DEB details
Identifier
41266, 2000-055FS
Orbit
LEO
Last TLE update17 hours ago
Origin
Flag of USNOAA (US)
ManufacturerUnknown
MissionSpacecraft
Bus & MotorUnknown
MassUnknown
Launch date (UTC)
2000-09-21 (24 years ago)
Launch vehicleUnknown
Launch site
Air Force Western Test Range (AFWTR)
Object type
Payload
Rocket body
Debris
Shape & HBRUnknown
Radar Cross SectionSmall (<0.1 m²)

Expand to show TLE details & history

TLE from 17 hours ago
0 NOAA 16 DEB
1 41266U 00055FS  24339.42521275  .00008110  00000-0  36293-2 0  9993
2 41266  98.6886  40.7354 0005130 205.9924 154.0997 14.22811234460529
Epoch: 2024-12-04T10:12Z
Definitive object data (Epoch: 2024-12-04T10:12:18.381Z)
Latitude-0.00004°
Longitude173.93827°
Altitude822.101 km
Speed7.44 km/s
True Right ascension02h 42m 56s
True Declination0° 00' 00"
Sunlit
Object was in full shadow at TLE epoch
Visualization TLE readout
Latitude56.36688°
Longitude161.43371°
Altitude828.287 km
Speed7.443 km/s
Apparent Right ascension11h 08m 10s
Apparent Declination59° 33' 09"
Sunlit
Object is in full shadow
Visualization observer readout
Local Sidereal Time01:18:16
Azimuth16.24° NNE
Elevation13.03°
Doppler factor1
Orbital elements
Apogee altitude816.704 km
Perigee altitude809.326 km
Semi-major axis7,191.152 km
Eccentricity0.000513
Inclination98.6886°
RAAN40.7354°
Arg. of periapsis205.9924°
True anomaly154.12536°
Mean anomaly154.0997°
Eccentric anomaly154.11253°
Mean motion3.55914 °/min
BSTAR0.0036293
Orbital period101.15 mins
Loading maneuver chart data...
Loading historical data...
Loading historical data...
Loading historical data...
Loading historical data...
Loading historical data...
Loading historical data...
Loading historical data...

NOAA 16 DEB Visibility forecast

Observer location: undefined°, undefined

Span
Click to sort rows by Start time (UTC) header in descending order
Start Az.
Max El. time (UTC)
Max El. Az.
Max El.
End time (UTC)
End Az.
8 mins2024-12-05 04:54:03.006Z203.53° SW2024-12-05 04:57:03.006Z257.947° W32.804°2024-12-05 05:02:03.006Z330.634° NNW
9 mins2024-12-05 17:10:03.006Z15.415° NNE2024-12-05 17:14:03.006Z45.071° ENE44.462°2024-12-05 17:19:03.006Z192.291° SSW
4 mins2024-12-06 02:54:03.006Z82.701° E2024-12-06 02:56:03.006Z56.254° ENE15.977°2024-12-06 02:58:03.006Z31.759° NE
|